Regional Weather Roundup
Issued by NWS

Home | Current Version | Previous Version | Graphics & Text | Print | Product List | Glossary On
Versions: 1 2 3 4 5 6 7 8 9 10 11 12 13 14 15 16 17 18 19 20 21 22 23 24 25 26 27 28 29 30 31 32 33 34 35 36 37 38 39 40 41 42 43 44 45 46 47 48 49 50
000
ASUS43 KOAX 222202
RWRNE

WEATHER ROUNDUP FOR NEBRASKA
NATIONAL WEATHER SERVICE OMAHA NE
500 PM CDT MON MAY 22 2017

NOTES: SATELLITE DATA IS BEING USED TO AUGMENT CLOUD COVER ABOVE
       12000 FEET.
       "FAIR" INDICATES FEW OR NO CLOUDS BELOW 12,000 FEET WITH NO
       SIGNIFICANT WEATHER AND/OR OBSTRUCTIONS TO VISIBILITY.

  * THESE STATIONS DO NOT REPORT WEATHER SUCH AS RAIN...SNOW OR FOG.

NEZ001>004-019>022-054>056-222300-
NEBRASKA PANHANDLE

CITY           SKY/WX    TMP DP  RH WIND       PRES   REMARKS
SCOTTSBLUFF    CLOUDY    53  40  61 NW18G26   30.09F
ALLIANCE       CLOUDY    50  42  74 N14       30.06S
CHADRON        LGT RAIN  53  42  66 S3        30.06F
GORDON         CLOUDY    50  44  80 W9        30.04S
KIMBALL        CLOUDY    48  41  76 NW21G26   30.13F
SIDNEY         CLOUDY    49  42  77 NW15G24   30.10R
$$

NEZ057>060-069>072-079>082-222300-
SOUTHWEST NEBRASKA

CITY           SKY/WX    TMP DP  RH WIND       PRES   REMARKS
NORTH PLATTE   MOSUNNY   65  42  43 NW10      29.95F
IMPERIAL       CLOUDY    65  41  41 N15G24    29.98F
LEXINGTON      CLOUDY    70  46  43 N9        29.92F
MCCOOK         PTSUNNY   71  42  35 N20G29    29.93F
OGALLALA       CLOUDY    60  41  49 N15       30.02R
$$

NEZ005>010-023>029-035>040-094-222300-
NORTH CENTRAL NEBRASKA

CITY           SKY/WX    TMP DP  RH WIND       PRES   REMARKS
VALENTINE      PTSUNNY   62  43  49 N14G23    29.97R
AINSWORTH      CLOUDY    60  42  51 NW17      29.96R
BROKEN BOW     MOSUNNY   68  41  37 NW15      29.93F
O`NEILL        MOSUNNY   61  42  50 N10       29.92R
ORD            SUNNY     67  42  40 NW14G23   29.90F
$$

NEZ041-046>049-061>064-073>077-083>087-222300-
SOUTH CENTRAL NEBRASKA

CITY           SKY/WX    TMP DP  RH WIND       PRES   REMARKS
GRAND ISLAND   CLOUDY    66  48  52 N14       29.91F
AURORA         LGT RAIN  62  53  72 NW7       29.89F
HASTINGS       LGT RAIN  61  53  75 N10       29.90F
HEBRON           N/A    N/A N/A N/A MISG        N/A
HOLDREGE       MOSUNNY   70  42  35 N16G23    29.91R
KEARNEY *      PTSUNNY   68  46  45 N16       29.92S
$$

NEZ011>018-030>034-042>045-222300-
NORTHEAST NEBRASKA

CITY           SKY/WX    TMP DP  RH WIND       PRES   REMARKS
NORFOLK        SUNNY     65  44  46 NW13      29.88F
ALBION         MOSUNNY   67  42  41 NW14G24   29.90F
BLAIR          TSTM      69  53  56 SW12G25   29.84S
FREMONT        PTSUNNY   72  49  45 NW17      29.84F
TEKAMAH        MOSUNNY   72  50  45 NW20      29.84R
WAYNE          CLOUDY    65  47  53 NW17      29.89S
$$

NEZ050>053-065>068-078-088>093-222300-
SOUTHEAST NEBRASKA

CITY           SKY/WX    TMP DP  RH WIND       PRES   REMARKS
LINCOLN        CLOUDY    71  50  47 S17       29.85F
OMAHA EPPLEY   CLOUDY    71  52  50 SW18G28   29.83F
BEATRICE       PTSUNNY   68  56  65 SW15G21   29.89F
FALLS CITY     CLOUDY    63  53  70 SW10      29.91F
NEBRASKA CITY  CLOUDY    68  44  42 SW17      29.88F
$$

NEZ044-045-051>053-067-222300-
OMAHA AREA

CITY           SKY/WX    TMP DP  RH WIND       PRES   REMARKS
OMAHA EPPLEY   CLOUDY    71  52  50 SW18G28   29.83F
BLAIR          TSTM      69  53  56 SW12G25   29.84S
FREMONT        PTSUNNY   72  49  45 NW17      29.84F
OFFUTT AFB     CLOUDY    70  50  49 SW10      29.85F
WAHOO          LGT RAIN  62  49  63 W6G31     29.84F
$$



USA.gov is the U.S. government's official web portal to all federal, state and local government web resources and services.